TimeEDT,TemperatureF,Dew PointF,Humidity,Sea Level PressureIn,VisibilityMPH,Wind Direction,Wind SpeedMPH,Gust SpeedMPH,PrecipitationIn,Events,Conditions,WindDirDegrees,DateUTC
12:21 AM,71.6,66.2,83,30.04,10.0,Variable,3.5,-,N/A,,Mostly Cloudy,0,2013-05-22 04:21:00
12:54 AM,72.0,66.0,81,30.01,10.0,Variable,5.8,-,N/A,,Overcast,0,2013-05-22 04:54:00
1:04 AM,71.6,66.2,83,30.03,10.0,SW,4.6,-,N/A,,Overcast,220,2013-05-22 05:04:00
1:54 AM,70.0,66.0,87,29.98,10.0,South,4.6,-,N/A,,Clear,190,2013-05-22 05:54:00
2:54 AM,69.1,66.0,90,29.95,9.0,South,6.9,-,N/A,,Clear,190,2013-05-22 06:54:00
3:54 AM,68.0,64.9,90,29.94,8.0,Variable,5.8,-,N/A,,Partly Cloudy,0,2013-05-22 07:54:00
4:07 AM,68.0,64.4,88,29.97,9.0,Variable,4.6,-,N/A,,Mostly Cloudy,0,2013-05-22 08:07:00
4:54 AM,68.0,64.9,90,29.94,8.0,South,6.9,-,N/A,,Overcast,190,2013-05-22 08:54:00
5:54 AM,68.0,64.0,87,29.96,10.0,Variable,5.8,-,N/A,,Overcast,0,2013-05-22 09:54:00
6:03 AM,68.0,64.4,88,30.00,10.0,SSW,5.8,-,N/A,,Overcast,200,2013-05-22 10:03:00
6:54 AM,68.0,64.9,90,29.98,8.0,Variable,5.8,-,N/A,,Overcast,0,2013-05-22 10:54:00
7:54 AM,69.1,64.0,84,29.99,9.0,Variable,5.8,-,N/A,,Overcast,0,2013-05-22 11:54:00
8:54 AM,71.1,64.0,78,30.01,10.0,Variable,4.6,-,N/A,,Overcast,0,2013-05-22 12:54:00
9:15 AM,71.6,64.4,78,30.04,10.0,SW,6.9,-,N/A,,Overcast,230,2013-05-22 13:15:00
9:54 AM,73.0,64.9,76,30.01,10.0,Variable,4.6,-,N/A,,Overcast,0,2013-05-22 13:54:00
10:36 AM,75.2,64.4,69,30.03,10.0,SSE,5.8,-,N/A,,Scattered Clouds,150,2013-05-22 14:36:00
10:54 AM,75.0,64.9,71,30.01,10.0,Variable,4.6,-,N/A,,Clear,0,2013-05-22 14:54:00
11:54 AM,79.0,66.0,64,29.99,10.0,South,8.1,-,N/A,,Partly Cloudy,170,2013-05-22 15:54:00
12:54 PM,80.1,66.0,62,29.97,10.0,South,6.9,-,N/A,,Scattered Clouds,180,2013-05-22 16:54:00
1:54 PM,82.0,66.0,58,29.95,10.0,Variable,6.9,-,N/A,,Scattered Clouds,0,2013-05-22 17:54:00
2:54 PM,82.9,64.0,53,29.94,10.0,SW,9.2,18.4,N/A,,Scattered Clouds,220,2013-05-22 18:54:00
3:54 PM,82.9,64.0,53,29.91,10.0,South,8.1,18.4,N/A,,Mostly Cloudy,180,2013-05-22 19:54:00
4:54 PM,82.9,64.0,53,29.89,10.0,South,10.4,17.3,N/A,,Partly Cloudy,190,2013-05-22 20:54:00
5:54 PM,82.0,64.9,56,29.89,10.0,South,12.7,18.4,N/A,,Partly Cloudy,170,2013-05-22 21:54:00
6:54 PM,80.1,64.0,58,29.89,10.0,South,4.6,-,N/A,,Partly Cloudy,170,2013-05-22 22:54:00
7:54 PM,73.9,62.1,66,29.92,10.0,Calm,Calm,-,N/A,,Overcast,0,2013-05-22 23:54:00
8:54 PM,73.0,63.0,71,29.94,10.0,WNW,10.4,-,N/A,,Mostly Cloudy,300,2013-05-23 00:54:00
9:54 PM,68.0,63.0,84,29.98,3.0,WNW,17.3,27.6,0.10,Rain,Heavy Rain,300,2013-05-23 01:54:00
10:01 PM,66.2,62.6,88,30.01,2.5,WNW,10.4,27.6,0.04,Rain,Heavy Rain,300,2013-05-23 02:01:00
10:10 PM,66.2,62.6,88,30.01,6.0,NW,6.9,20.7,0.06,Rain,Light Rain,310,2013-05-23 02:10:00
10:54 PM,66.0,63.0,90,29.97,10.0,Calm,Calm,-,0.09,,Overcast,0,2013-05-23 02:54:00
11:54 PM,64.9,64.0,97,29.94,9.0,Calm,Calm,-,0.01,,Mostly Cloudy,0,2013-05-23 03:54:00